This is the latest recevied weather packets stored in our database for station/object KD6VEX-1. If no packets are shown the sender has not sent any weather packets the latest 10 day(s).
| Time | Temp. | Humidity | Pressure | Rain* | Wind** | Luminosity | Snow |
|---|---|---|---|---|---|---|---|
| 1777930692 | 18.89° C | 55% | 1014.8 hPa | 0 mm | - | - | - |
| 1777930392 | 18.89° C | 58% | 1014.9 hPa | 0 mm | - | - | - |
| 1777930092 | 18.89° C | 57% | 1014.9 hPa | 0 mm | - | - | - |
| 1777929792 | 18.89° C | 54% | 1015 hPa | 0 mm | - | - | - |
| 1777929492 | 19.44° C | 54% | 1015 hPa | 0 mm | - | - | - |
| 1777929192 | 19.44° C | 54% | 1014.9 hPa | 0 mm | - | - | - |
| 1777928892 | 19.44° C | 55% | 1015 hPa | 0 mm | - | - | - |
| 1777928593 | 19.44° C | 51% | 1015 hPa | 0 mm | - | - | - |
| 1777928292 | 20° C | 49% | 1015 hPa | 0 mm | - | - | - |
| 1777927992 | 20° C | 48% | 1015 hPa | 0 mm | - | - | - |
| 1777927692 | 20° C | 49% | 1014.9 hPa | 0 mm | - | - | - |
| 1777927392 | 20.56° C | 51% | 1014.8 hPa | 0 mm | - | - | - |
| 1777926792 | 21.11° C | 49% | 1014.8 hPa | 0 mm | - | - | - |
| 1777926492 | 21.67° C | 48% | 1014.8 hPa | 0 mm | - | - | - |
| 1777926192 | 21.67° C | 48% | 1014.8 hPa | 0 mm | - | - | - |
| 1777925892 | 21.67° C | 47% | 1014.7 hPa | 0 mm | - | - | - |
| 1777925593 | 21.67° C | 47% | 1014.6 hPa | 0 mm | - | - | - |
| 1777925293 | 22.22° C | 45% | 1014.6 hPa | 0 mm | - | - | - |
| 1777924992 | 21.67° C | 47% | 1014.6 hPa | 0 mm | - | - | - |
| 1777924692 | 21.11° C | 47% | 1014.5 hPa | 0 mm | - | - | - |
| 1777924392 | 21.67° C | 45% | 1014.6 hPa | 0 mm | - | - | - |
| 1777924092 | 21.67° C | 44% | 1014.6 hPa | 0 mm | - | - | - |
| 1777923792 | 22.22° C | 45% | 1014.7 hPa | 0 mm | - | - | - |
| 1777923493 | 22.22° C | 44% | 1014.8 hPa | 0 mm | - | - | - |
| 1777923192 | 21.67° C | 44% | 1014.7 hPa | 0 mm | - | - | - |
* Rain latest hour (hover to see other rain measurements)
** Current wind speed in m/s (hover to see current wind gust speed)